User: anonymous   Login
Location: Doux
(49.5045°N, 4.4321°E)
Time: 13:40:00
(UTC+00:00)
Language:

Cosmos 540 Rocket - Orbit

View from above orbital plane
View from above orbital plane
View from above satellite
View from above satellite

Ground track
Ground track

The orbit data is extracted from the following two-line orbital elements,

1 06324U 72104B   24202.83025014  .00000931  00000-0  27747-3 0  9995
2 06324  74.0791 343.1449 0008786 180.3103 179.8051 14.44420519709144
Epoch (UTC): 20 July 2024 19:55:33
Eccentricity: 0.0008786
inclination: 74.0791°
perigee height: 737 km
apogee height: 750 km
right ascension of ascending node: 343.1449°
argument of perigee: 180.3103°
revolutions per day: 14.44420519
mean anomaly at epoch: 179.8051°
orbit number at epoch: 70914

The dashed part of the orbit path shows where the satellite is in the earth's shadow,  

DLR